Location: Hains Lake
(37.8540°N, 99.8578°W)
Time: 11:19:08
(UTC+00:00)

Tiros 1 despin weight - Pass Details

Date: 20 April 2021
Orbit: 593 x 642 km, 48.2° (Epoch: 07 May)

Event Time Altitude Azimuth Distance (km) Brightness Sun altitude
Rises 11:50:04 0° 245° (WSW) 2,912 - -2.1°
Exits shadow 11:50:37 - 246° (WSW) 2,694 ? -2.0°
Reaches altitude 10° 11:52:25 10° 249° (WSW) 2,000 ? -1.7°
Maximum altitude 11:56:59 62° 330° (NNW) 701 ? -0.8°
Drops below altitude 10° 12:01:29 10° 52° (NE) 1,976 ? 0.0°
Sets 12:03:48 0° 55° (NE) 2,874 ? 0.5°
